Regional Weather Roundup
Issued by NWS

Home | Current Version | Previous Version | Text Only | Print | Product List | Glossary On
Versions: 1 2 3 4 5 6 7 8 9 10 11 12 13 14 15 16 17 18 19 20 21 22 23 24 25 26 27 28 29 30 31 32 33 34 35 36 37 38 39 40 41 42 43 44 45 46 47 48 49 50
000
ASUS43 KDTX 312110
RWRMI
MICHIGAN HOURLY REGIONAL WEATHER ROUNDUP
NATIONAL WEATHER SERVICE DETROIT/PONTIAC MI
500 PM EDT FRI JUL 31 2015

NOTE: "FAIR" INDICATES FEW OR NO CLOUDS BELOW 12,000 FEET WITH NO
SIGNIFICANT WEATHER AND/OR OBSTRUCTION TO VISIBILITY.

MIZ047>049-052>055-059>063-066>070-074>076-081>083-312200-
SOUTHEAST LOWER MICHIGAN

CITY           SKY/WX    TMP DP  RH WIND       PRES   REMARKS
ADRIAN         SUNNY     84  54  35 NW15G24   29.89S
ALMA           MOSUNNY   82  52  36 W15G29    29.85S
ANN ARBOR      SUNNY     84  55  36 W16G25    29.86F
BAD AXE        MOSUNNY   80  57  46 NW8       29.81S
DETROIT CITY   MOSUNNY   87  51  28 W21G29    29.82F
DETROIT        PTSUNNY   86  55  34 W16G23    29.84F
FLINT          MOSUNNY   85  52  32 W21G29    29.84S
GROSSE ILE     MOSUNNY   86  54  32 W13G25    29.83F
HILLSDALE      MOSUNNY   84  50  31 NW16G22   29.91S
HOWELL         MOSUNNY   83  47  28 W15G25    29.86S

CITY           SKY/WX    TMP DP  RH WIND       PRES   REMARKS
JACKSON        SUNNY     81  53  37 W14       29.89S
LAMBERTVILLE   SUNNY     87  56  34 W14G23    29.87F
LANSING        MOSUNNY   84  53  34 W18       29.87F
LAPEER         NOT AVBL
MASON          MOSUNNY   80  50  34 W17G28    29.88S
MONROE         CLOUDY    82  60  46 W12       29.85S
MT. CLEMENS    MOSUNNY   84  58  42 W15G25    29.80F
PONTIAC        MOSUNNY   84  53  34 W20       29.84F
PORT HOPE        N/A     72  60  66 CALM      29.78F
PORT HURON     MOSUNNY   82  59  44 W10       29.81F
TRI CITIES     PTSUNNY   82  53  36 W20G26    29.82S
YPSILANTI      SUNNY     90  54  29 W18G30    29.85F
$$
MIZ043>046-050>051-056>058-064>065-071>073-077>080-312200-
SOUTHWEST LOWER MICHIGAN

CITY           SKY/WX    TMP DP  RH WIND       PRES   REMARKS
BATTLE CREEK   MOSUNNY   84  55  36 NW20G25   29.91F
BENTON HARBOR  SUNNY     80  61  52 W13G18    29.93F
BIG RAPIDS     PTSUNNY   80  44  28 NW16G23   29.87S
COLDWATER      MOSUNNY   82  49  30 W16G22    29.91F
HOLLAND        SUNNY     81  53  37 NW13G24   29.92F
GRAND RAPIDS   MOSUNNY   82  49  31 W24G31    29.89F
KALAMAZOO      MOSUNNY   84  55  36 W16G25    29.91F
MARSHALL       MOSUNNY   84  54  35 W21G28    29.90S
MUSKEGON       MOSUNNY   81  53  37 W16G26    29.90F
$$
MIZ016>042-312200-
NORTHERN LOWER MICHIGAN

CITY           SKY/WX    TMP DP  RH WIND       PRES   REMARKS
ALPENA         MOSUNNY   82  50  32 NW16      29.78S
BEAVER ISLAND  LGT RAIN  68  56  63 W7        29.83S
BELLAIRE       MOSUNNY   77  56  47 W9        29.83S
CADILLAC       PTSUNNY   79  52  39 W18G29    29.87R
CHARLEVOIX     PTSUNNY   73  57  57 W10       29.86F
FRANKFORT      MOCLDY    75  62  62 W5        29.86S
GAYLORD        CLOUDY    67  56  67 NW6       29.85R
GRAYLING       PTSUNNY   79  51  36 NW15G22   29.84S
HARBOR SPRINGS MOSUNNY   70  57  65 W6        29.82S
HOUGHTON LAKE  MOSUNNY   79  52  38 NW13G30   29.84S
MANISTEE       SUNNY     79  55  44 W14       29.88S
OSCODA         PTSUNNY   81  55  39 W10G21    29.77F
PELLSTON       MOSUNNY   79  52  38 NW20G28   29.81S
TRAVERSE CITY  PTSUNNY   80  53  39 W13G22    29.82S
$$
MIZ007>008-015-312200-
EASTERN UPPER MICHIGAN

CITY           SKY/WX    TMP DP  RH WIND       PRES   REMARKS
KINROSS        SUNNY     70  57  64 N16G24    29.79S
MACKINAC ISLAN MOSUNNY   73  55  52 W15G26    29.79R
NEWBERRY       PTSUNNY   73  55  53 NW10G22   29.82R
S. S. MARIE    SUNNY     65  56  72 NW14G25   29.80
$$
MIZ004>006-011>014-085-312200-
CENTRAL UPPER MICHIGAN

CITY           SKY/WX    TMP DP  RH WIND       PRES   REMARKS
MANISTIQUE     CLOUDY    73  57  56 NW12      29.82S
ESCANABA       MOSUNNY   79  50  36 NW14G25   29.82F
MENOMINEE      PTSUNNY   77  52  41 NW8       29.85S
SAWYER-GWINN   PTSUNNY   73  48  40 NW22G29   29.86S
$$
MIZ001>003-009>011-084-312200-
WESTERN UPPER MICHIGAN

CITY           SKY/WX    TMP DP  RH WIND       PRES   REMARKS
IRON MOUNTAIN  CLOUDY    74  50  42 NW16G24   29.87S
HOUGHTON       MOSUNNY   71  52  50 W17       29.86S
COPPER HARBOR    N/A     72  53  51 N18G26    29.82F
IRONWOOD       MOSUNNY   70  54  56 NW13      29.91S
$$

ABBREVIATIONS USED IN REMARKS
   TC - TEMPERATURE IN CELSIUS
  WCI - WIND CHILL INDEX
   HX - HEAT INDEX
  VSB - VISIBILITY




USA.gov is the U.S. government's official web portal to all federal, state and local government web resources and services.